Theta_e
332 333 334 335 336 336 336 336 336 336 336 336 336 337 339 338 338 337 340 340 341 340 339 339 338 338 339 338 337 337 336 334 333 334 335 335 335 336 336 335 334 336 337 336 334 342 339 339 336 333 335 335 335 335 335 336 337 336 336 334 332 330 331 329 327 323 318 317 315 318 322 325 332 328 324 324 324 324 324 325 325 327 326 327 327
331 331 332 333 334 335 335 336 337 334 335 336 335 336 339 339 338 338 339 340 341 340 339 339 338 338 337 337 337 336 336 334 331 332 334 335 335 335 336 335 334 335 338 334 335 338 336 335 334 334 333 333 334 336 336 341 338 338 338 332 332 328 327 329 326 322 317 315 314 316 316 322 325 325 322 325 325 325 324 325 326 326 326 326 327
329 331 332 334 334 335 335 336 336 336 336 336 336 337 338 338 339 339 339 339 340 340 339 337 336 337 338 336 338 336 337 338 335 334 335 334 335 335 336 336 334 335 336 337 337 337 336 335 334 333 332 335 335 334 335 334 335 336 333 330 327 326 328 330 324 319 317 315 315 314 311 316 319 318 318 321 324 324 325 326 327 325 326 326 326
328 329 331 333 334 334 335 335 336 337 336 336 336 337 338 338 338 339 339 339 339 339 339 338 338 337 338 339 339 339 337 337 336 334 334 333 333 335 336 337 334 335 336 337 336 336 335 335 334 332 333 335 334 332 332 333 334 334 332 332 326 321 323 326 327 322 319 315 311 311 310 312 313 312 313 318 321 321 326 326 326 327 328 328 325
328 329 331 332 333 333 334 335 337 336 336 335 336 337 339 337 338 338 339 338 339 340 339 338 338 336 337 338 338 337 336 336 334 330 332 333 333 333 334 336 334 336 336 335 336 335 335 334 333 333 334 335 335 334 333 335 335 334 332 331 325 321 320 322 325 326 322 318 314 312 310 310 309 311 314 315 317 318 320 324 326 323 328 326 325
330 330 331 332 333 333 334 335 336 336 336 336 336 337 338 337 338 339 339 339 339 339 338 338 337 336 335 334 333 334 333 333 332 331 331 331 332 333 334 336 335 335 335 336 336 336 334 333 333 334 334 335 334 332 333 334 334 333 332 330 325 323 321 322 321 324 323 324 318 314 313 312 309 312 310 310 313 317 317 321 319 319 321 324 324
330 331 332 332 333 333 333 334 336 336 336 337 337 337 338 338 338 338 338 338 339 339 339 338 336 336 335 335 335 334 333 333 333 333 332 335 337 335 335 335 336 335 335 336 336 336 335 334 334 334 334 333 335 334 333 334 334 331 331 327 325 326 324 319 321 320 320 320 322 320 322 318 312 312 309 309 309 311 313 315 318 318 324 324 325
329 330 331 333 333 333 333 334 336 337 337 337 336 337 337 337 338 338 338 338 339 339 338 338 336 335 335 335 335 334 334 333 333 333 336 338 335 334 334 333 334 335 335 335 336 336 335 335 335 334 334 333 334 333 332 333 331 330 329 328 327 325 323 323 320 317 316 317 321 318 319 319 318 317 312 314 308 306 309 313 314 316 318 318 323
330 330 331 332 332 333 334 334 336 337 337 336 336 336 337 338 338 338 338 338 339 339 338 337 337 336 335 335 334 334 334 334 334 335 337 337 333 331 330 328 330 334 336 336 335 335 336 336 335 334 333 334 334 332 330 331 331 329 327 326 325 325 325 323 321 319 317 316 313 315 314 314 315 314 313 312 308 304 306 306 310 313 314 317 319
330 331 331 332 333 334 335 336 336 337 338 337 336 337 337 337 337 338 337 338 339 338 338 337 337 336 335 334 333 332 333 333 334 334 336 334 331 329 328 328 329 331 333 334 334 335 335 336 334 334 334 334 334 333 332 330 331 329 327 326 326 326 325 323 321 318 317 315 314 314 313 311 312 311 311 310 310 308 306 307 308 308 309 313 316
329 330 331 332 334 335 335 334 336 337 337 337 336 337 337 337 337 337 337 338 338 337 337 337 337 336 335 334 334 332 332 333 333 333 334 331 329 328 328 327 328 329 331 333 333 334 334 335 333 333 334 335 334 333 331 331 330 328 328 326 325 325 324 322 320 317 318 317 315 314 313 312 311 309 308 308 307 305 304 306 306 309 309 311 314
329 329 330 331 332 333 334 334 335 336 336 336 335 336 337 337 336 336 336 337 337 337 337 337 337 336 335 334 334 333 333 334 333 333 334 330 329 328 329 328 327 328 329 331 332 334 334 333 333 332 332 333 332 332 330 331 329 327 326 325 324 323 322 321 318 316 316 316 316 314 313 314 313 312 311 310 310 307 306 305 306 307 309 311 314
328 329 330 330 331 332 333 333 335 335 335 335 335 335 336 336 336 335 335 336 337 337 336 336 336 336 335 334 334 334 334 334 334 334 335 331 329 328 328 327 326 327 328 330 331 333 334 333 333 332 332 332 332 331 330 331 328 325 325 324 322 320 319 319 317 315 316 316 314 313 313 314 312 312 312 311 310 308 307 303 306 308 307 310 312
328 329 330 330 332 333 333 334 335 335 335 335 335 335 335 335 335 335 334 336 336 336 336 336 336 336 335 334 334 334 334 335 335 334 335 330 329 328 328 328 327 327 328 330 332 333 334 334 334 333 332 332 332 330 330 330 328 325 323 322 321 320 320 319 318 316 316 316 314 313 312 312 312 312 311 311 309 308 305 305 304 305 305 308 311
328 328 330 331 332 333 333 334 334 335 335 335 335 335 335 335 335 334 334 335 335 335 336 335 335 334 334 334 335 334 334 334 334 335 334 330 329 328 329 329 328 328 329 331 333 333 333 334 334 332 331 331 331 331 331 329 327 324 323 322 322 322 320 319 317 317 317 315 313 312 312 312 311 311 311 311 310 309 307 305 303 305 304 305 306
328 328 330 331 332 333 334 334 335 335 335 335 335 335 334 334 334 334 334 334 334 335 335 335 334 333 333 334 334 334 333 333 333 334 333 331 329 329 329 329 329 330 331 332 334 334 333 333 334 333 332 332 331 331 329 326 325 323 321 322 321 322 318 317 316 316 315 314 313 312 312 310 310 310 311 309 308 308 309 306 305 303 304 302 303
327 328 329 330 332 333 334 334 334 335 335 335 335 335 334 334 334 333 334 334 334 334 334 334 333 332 332 333 333 333 333 333 333 333 332 331 330 329 329 329 330 330 331 333 334 335 333 333 334 333 333 331 329 328 327 325 324 323 321 321 320 319 318 316 315 315 314 313 312 311 311 311 309 310 310 310 310 309 308 306 304 304 302 303 298
328 329 330 331 332 332 333 334 335 335 335 335 335 336 335 335 334 333 333 333 334 334 333 333 332 331 332 333 333 333 334 333 333 333 331 330 328 329 329 328 329 329 331 334 334 334 332 336 334 333 332 329 327 326 326 324 323 322 321 320 320 319 317 317 317 315 314 314 313 312 311 310 310 309 311 310 310 310 308 308 306 304 305 302 298
327 328 329 330 330 331 332 333 335 335 336 336 336 336 336 335 335 334 333 334 334 334 333 332 332 332 332 332 332 333 333 333 332 332 331 330 328 328 327 328 329 329 331 334 334 333 332 333 333 331 329 327 325 325 325 323 322 321 321 320 319 318 317 316 316 316 315 315 313 312 309 309 310 310 308 310 308 310 308 307 305 306 306 304 302
327 328 329 330 330 331 332 333 334 334 335 336 336 336 335 335 334 334 334 333 332 332 332 331 331 332 332 332 333 333 333 333 331 331 331 330 329 328 328 327 328 330 332 334 333 332 332 332 330 329 328 326 324 324 323 322 322 321 320 319 318 318 317 315 314 315 317 314 312 311 310 311 310 310 310 310 308 308 308 306 306 305 304 302 303
327 329 329 330 330 331 332 334 335 336 336 336 336 335 336 335 335 334 333 333 332 332 332 331 331 331 331 331 332 332 331 331 330 331 331 330 330 329 328 328 328 329 333 334 332 331 331 331 329 328 327 324 323 323 323 322 321 320 319 319 318 317 316 315 316 314 314 313 312 310 309 309 310 310 308 309 309 308 308 307 306 304 303 302 301
326 329 330 330 330 331 332 334 335 335 335 335 336 336 335 335 335 335 334 333 332 331 332 331 331 332 332 332 332 331 330 330 330 330 330 330 329 328 328 327 327 330 333 334 333 331 330 328 327 327 326 325 324 322 322 322 320 319 318 319 318 317 317 316 315 314 312 313 311 309 309 308 309 308 307 307 308 307 307 306 305 305 302 303 302
325 329 330 331 330 331 332 333 334 334 335 335 335 335 335 335 335 334 334 333 333 331 332 331 331 332 332 333 331 330 330 329 329 329 329 328 327 327 328 328 328 330 332 334 333 331 328 328 327 326 326 325 325 324 323 322 320 319 319 319 318 317 316 315 313 312 312 311 311 310 309 309 309 307 306 306 307 307 306 306 304 304 304 302 303
324 328 330 330 330 331 332 333 333 334 334 334 335 335 335 335 335 334 333 333 333 332 332 332 332 332 332 332 331 330 329 329 328 328 328 327 327 327 328 328 328 330 332 332 331 329 329 328 327 325 325 324 323 323 322 321 320 319 319 318 317 316 316 314 313 312 311 310 309 307 307 309 308 306 304 304 304 304 305 305 304 304 303 303 303
322 326 328 329 329 330 332 333 333 334 334 334 334 334 334 334 334 334 333 333 333 333 333 333 332 331 332 332 331 331 329 328 328 328 327 326 326 327 328 329 329 330 331 330 328 328 328 327 325 324 324 323 322 322 321 321 320 319 318 317 317 316 315 314 313 311 313 306 306 305 306 307 306 304 302 303 302 303 304 305 304 305 304 304 305
322 324 326 327 328 330 332 332 333 334 334 334 334 334 334 334 334 333 333 333 334 334 334 333 333 332 332 332 332 332 330 329 328 328 327 327 326 327 328 330 331 330 330 329 327 328 328 326 325 325 324 323 322 322 321 320 319 318 318 317 317 316 314 311 308 306 305 305 304 304 305 305 305 304 301 301 301 302 303 303 303 303 303 303 304
322 324 326 328 328 329 331 332 333 334 334 334 334 334 334 333 332 332 333 334 334 335 334 334 333 333 332 333 332 332 332 329 328 328 328 327 327 327 328 329 329 329 329 327 328 327 326 325 324 324 323 322 321 321 320 319 318 317 317 316 314 312 308 306 304 303 303 303 303 303 303 302 302 301 301 301 302 302 304 302 302 302 302 302 302
324 325 326 326 327 328 330 331 332 333 334 334 334 334 333 332 332 333 334 334 335 335 334 334 334 333 333 333 332 333 331 329 329 329 329 328 328 327 329 328 328 328 327 326 327 326 326 326 325 324 323 322 321 320 319 319 317 317 316 314 312 307 305 303 302 301 301 300 301 300 300 300 300 300 301 300 302 302 301 300 299 301 302 302 301
325 326 326 326 327 327 329 330 331 332 332 332 331 329 329 330 332 333 334 334 335 334 334 333 333 332 332 333 333 332 331 329 329 330 329 329 329 328 328 328 327 326 326 326 326 327 326 325 324 323 322 322 320 319 319 318 317 316 315 312 308 305 303 301 299 298 298 299 299 300 301 302 307 308 307 307 306 305 302 301 299 300 302 301 300
325 326 326 327 327 328 328 329 329 330 330 329 328 328 329 330 331 332 333 333 334 333 333 332 332 332 332 332 332 331 329 329 329 329 329 329 329 328 328 327 327 326 325 326 327 326 325 323 322 322 322 321 320 319 318 313 314 315 314 311 307 304 302 300 298 297 298 300 302 304 309 310 309 308 305 302 300 302 304 302 299 300 301 300 300
325 325 326 326 327 327 327 328 328 329 329 328 328 328 329 330 330 331 331 332 333 332 332 332 331 331 331 331 331 330 329 328 329 330 329 329 328 328 327 325 326 325 325 325 325 324 323 323 322 321 320 320 320 320 308 303 304 308 313 309 305 303 301 299 297 297 298 302 302 303 303 307 306 305 301 299 298 298 298 299 301 303 304 301 300
317 320 324 325 325 325 325 326 327 328 328 327 327 328 328 328 329 330 331 332 332 331 331 331 331 330 330 330 330 329 328 328 329 329 328 328 328 327 326 325 325 324 324 324 324 323 322 321 321 320 319 319 318 312 301 301 302 303 309 309 305 303 301 299 298 299 300 301 301 301 301 301 298 299 299 299 300 298 296 296 296 297 297 297 300
316 315 316 320 324 324 324 324 326 327 328 328 328 328 327 328 328 330 331 331 331 331 330 330 330 330 330 330 330 329 328 328 328 328 327 327 327 326 326 324 324 324 323 322 323 322 321 319 319 319 318 317 317 304 300 300 301 301 303 307 306 304 301 300 300 300 301 301 301 301 300 301 305 308 305 297 298 298 300 299 300 299 298 297 295
315 316 316 317 318 321 323 325 327 327 327 326 327 328 328 329 329 329 330 329 330 330 330 329 329 329 329 330 329 328 327 327 327 327 326 326 326 325 325 325 325 324 322 321 322 322 320 318 318 318 316 316 315 303 299 300 300 300 301 304 308 305 303 301 300 301 301 301 301 301 301 302 303 302 299 299 298 297 297 298 298 298 300 301 297
314 315 317 317 317 319 322 323 324 324 324 326 326 327 328 328 329 329 329 329 329 329 328 329 329 329 329 329 328 327 327 327 326 326 325 325 325 325 325 324 324 324 323 322 321 320 319 318 317 316 315 314 312 299 298 299 299 299 300 305 309 307 304 302 301 301 302 302 302 302 302 302 303 300 300 300 299 298 298 299 297 297 296 296 297
314 314 315 318 320 321 320 319 318 322 323 325 325 326 327 327 329 329 328 328 328 328 327 328 328 328 328 328 327 326 326 326 326 325 324 324 324 324 324 323 323 323 323 322 319 319 317 316 315 314 312 311 308 296 297 298 298 299 301 312 310 308 305 303 303 303 303 303 303 303 303 303 302 300 303 298 300 299 299 298 298 298 296 296 297
318 318 319 321 320 318 317 317 318 319 320 320 321 325 326 327 328 328 328 328 328 327 327 327 328 328 328 328 327 326 325 325 325 324 323 323 323 323 323 323 322 321 321 321 320 318 316 314 312 312 311 309 305 298 296 297 298 298 304 311 310 308 307 305 304 304 305 305 305 304 303 302 299 298 299 295 296 300 299 299 298 296 297 296 297
320 319 319 320 321 320 319 319 318 318 318 319 321 324 325 325 326 327 328 328 328 327 327 327 328 328 328 328 328 327 326 325 324 323 322 322 323 323 322 322 322 320 320 319 318 316 315 313 311 310 310 308 305 300 295 297 298 300 307 311 309 308 307 306 305 305 305 304 304 308 305 299 297 296 294 293 293 300 300 300 298 295 296 295 295
319 318 318 319 320 320 320 320 320 319 319 319 320 320 322 321 321 322 327 328 327 327 327 327 328 329 329 328 328 327 326 325 324 323 322 322 322 322 321 322 322 321 319 318 316 315 314 312 311 310 310 308 306 302 296 296 298 300 307 310 308 306 305 304 304 302 302 302 303 305 304 300 298 296 291 292 293 300 301 301 298 296 295 294 295
319 319 318 318 318 319 318 318 318 319 320 320 320 320 318 318 318 320 319 319 322 326 327 328 328 329 329 328 328 326 326 325 324 322 323 322 321 320 320 321 320 320 318 317 315 315 314 312 311 310 310 309 308 305 301 295 298 299 302 309 307 305 303 301 302 301 300 298 298 298 298 293 292 291 291 292 294 297 301 300 299 297 295 296 293
317 316 312 317 318 318 318 319 320 320 320 320 320 319 318 317 318 318 318 321 323 326 327 327 327 327 327 326 327 326 325 325 324 323 321 320 321 321 320 320 319 318 317 315 314 314 314 312 310 309 309 309 309 306 302 295 297 298 299 303 306 305 303 301 301 300 298 297 296 295 294 293 291 291 292 292 293 294 296 300 300 298 296 294 294
313 312 314 317 317 317 318 319 319 320 320 320 319 317 316 317 317 316 317 322 323 325 326 326 326 325 324 324 325 324 324 324 323 321 320 320 320 321 320 319 318 317 316 315 314 313 313 311 310 309 309 309 309 306 302 295 295 296 297 300 305 304 303 301 299 298 297 297 296 295 294 293 291 291 291 292 293 293 294 297 293 292 291 291 293
315 315 315 315 314 314 315 316 318 319 319 319 319 317 316 316 317 318 319 320 321 321 323 324 323 323 322 323 323 321 322 323 321 321 321 319 319 319 318 317 316 315 315 314 313 312 312 310 309 308 307 307 305 303 298 299 294 294 294 296 296 299 297 302 299 297 297 296 296 296 296 295 291 292 291 292 292 293 294 291 290 290 291 290 293
316 316 316 317 317 318 318 318 319 317 316 317 318 317 317 317 319 321 319 319 319 319 318 318 318 321 321 321 321 321 322 321 320 320 319 318 316 317 317 317 316 315 314 313 311 311 311 310 308 306 305 302 301 300 296 295 295 291 292 292 293 295 297 301 300 299 297 297 296 295 296 292 291 292 291 291 291 293 291 290 290 290 291 293 296
318 319 318 318 318 318 319 319 319 317 316 315 315 317 315 317 319 319 320 321 319 317 316 317 317 318 318 320 321 321 321 320 320 319 317 315 314 315 315 314 315 314 314 312 310 310 310 308 307 305 301 300 300 300 298 293 292 292 292 291 291 293 295 296 300 299 297 297 295 293 292 291 291 291 291 292 292 293 292 292 291 292 300 295 295
319 319 319 320 320 320 319 318 319 320 318 316 316 315 314 316 318 318 320 320 320 318 315 316 316 315 317 319 318 318 317 317 317 318 318 317 316 316 315 314 314 314 313 311 309 309 308 307 304 301 300 300 300 298 297 298 297 296 294 292 293 294 296 297 299 298 294 293 292 291 291 291 291 292 295 293 293 294 294 293 294 298 297 296 295
316 317 317 319 319 318 317 317 317 318 318 319 319 318 318 318 318 317 317 317 317 316 314 313 314 315 316 318 317 316 314 314 314 314 314 314 315 316 314 312 314 312 311 309 308 306 305 303 301 301 300 299 298 298 297 297 298 298 298 298 298 298 296 296 297 295 294 294 293 294 293 292 292 292 292 292 294 295 296 297 295 296 296 295 295
314 315 317 317 317 316 316 316 315 317 317 318 319 318 318 318 319 319 317 316 313 313 315 314 313 314 315 316 315 303 310 310 307 308 310 311 312 313 313 313 313 312 310 308 307 305 304 303 301 301 299 298 297 297 297 298 298 299 299 300 300 300 300 298 297 297 296 297 295 293 294 296 296 297 297 297 297 298 297 295 297 296 296 296 298
312 312 313 313 313 313 313 313 313 315 315 315 316 317 318 317 317 318 319 316 312 310 313 313 312 313 312 312 312 311 309 305 300 295 293 294 297 303 308 309 308 310 313 311 309 307 305 304 303 301 299 297 297 297 298 295 297 295 297 300 299 298 298 298 297 294 298 297 296 296 295 295 295 293 295 297 297 297 296 297 298 297 296 295 295
312 312 312 312 312 312 312 312 312 313 314 314 314 315 316 317 318 317 317 315 313 312 311 310 310 309 308 308 308 306 305 304 302 299 297 296 290 291 291 301 305 303 303 303 302 306 305 304 302 302 301 301 299 299 294 293 293 293 293 294 294 293 293 296 294 293 296 296 295 294 294 293 295 294 294 294 294 294 295 294 295 291 291 296 294
311 311 311 311 310 311 310 310 311 312 312 312 313 314 314 315 315 315 314 313 312 310 308 308 306 305 304 305 305 304 304 303 302 301 301 300 299 297 292 290 292 297 297 296 296 296 297 298 301 300 297 295 294 293 292 293 293 293 293 293 292 293 293 292 293 294 294 291 290 290 292 293 292 294 292 292 291 291 290 290 292 290 291 293 290
Wind_Speed
12 12 13 12 11 11 10 10 11 12 13 14 14 13 13 13 13 13 11 11 11 9 9 9 9 8 8 9 10 8 8 7 7 7 8 8 9 8 8 7 6 6 6 5 5 3 4 4 4 4 5 6 6 5 4 3 3 5 5 3 2 0 0 1 1 4 3 3 3 3 4 2 1 3 3 4 2 2 1 4 3 4 4 4 3
8 8 7 5 6 8 9 10 12 14 13 15 16 14 12 13 15 14 11 11 11 10 9 9 8 8 9 9 8 8 8 8 8 7 8 7 8 7 7 6 6 6 6 4 3 5 5 5 6 7 6 5 4 2 2 2 3 3 5 3 1 2 1 1 0 1 2 1 1 4 4 4 3 3 3 4 4 3 2 3 2 4 4 4 3
9 12 12 11 10 11 10 11 12 15 15 16 14 12 12 13 14 14 12 11 9 9 10 9 7 7 8 7 8 6 6 7 7 7 7 7 7 7 7 7 7 6 4 4 5 6 7 7 7 5 4 4 4 2 1 2 3 4 5 5 2 2 0 0 0 1 0 1 1 1 1 1 2 4 3 4 6 5 3 4 1 3 3 3 3
13 13 12 10 11 12 11 11 12 11 12 11 13 14 12 12 12 13 13 12 10 7 9 10 10 8 6 9 8 9 7 4 4 6 7 6 7 7 7 7 6 5 4 5 5 7 8 8 6 4 5 4 5 4 3 4 2 3 4 4 4 2 1 0 1 1 2 2 1 0 1 2 1 1 1 3 3 4 6 3 2 3 2 2 3
15 13 12 12 12 13 13 13 11 12 13 14 14 14 11 13 13 13 12 13 11 9 9 9 9 7 6 6 6 4 3 6 4 3 6 6 6 5 7 4 4 5 4 4 6 7 6 6 5 5 4 4 3 4 4 5 4 3 4 5 4 5 3 1 0 1 1 1 3 2 1 1 2 2 0 1 4 4 5 4 5 3 2 2 5
19 17 16 15 15 12 11 12 12 11 12 13 13 13 12 12 13 13 11 10 13 13 11 10 10 10 9 9 9 8 8 8 10 8 6 6 6 4 3 4 6 6 7 7 5 5 6 5 5 5 5 4 4 5 3 2 2 2 3 5 4 3 6 4 2 1 0 0 0 2 3 2 3 1 2 2 3 1 2 3 6 4 1 4 5
15 17 17 16 14 14 14 14 13 13 11 11 11 12 12 12 13 13 12 10 11 12 12 10 10 10 12 11 9 9 9 6 4 5 6 5 6 7 7 7 8 9 7 7 6 5 5 5 6 5 4 3 3 4 4 3 3 3 4 5 5 5 6 4 5 2 1 1 3 2 2 0 3 2 1 1 1 2 4 4 5 7 6 6 7
15 16 17 18 18 18 17 16 14 13 12 12 12 12 14 14 14 13 11 11 10 11 11 11 11 10 10 9 9 8 8 7 5 5 6 7 7 8 7 5 5 8 10 9 9 7 7 6 5 4 4 3 3 5 5 3 2 2 4 5 4 5 6 7 4 3 5 1 2 4 4 4 3 3 2 2 3 1 3 3 1 5 7 8 7
18 16 17 17 17 18 18 16 13 12 13 14 13 12 12 13 13 12 12 11 11 12 11 10 10 10 10 8 8 6 7 6 5 6 7 7 8 5 5 3 5 5 2 8 8 7 7 7 6 5 5 4 3 4 3 3 3 5 5 6 5 4 5 5 6 4 4 2 2 2 4 4 4 3 2 4 2 2 0 2 3 3 6 8 7
17 20 19 18 17 17 17 14 13 14 12 12 11 11 12 12 13 14 14 12 11 12 11 11 10 10 9 9 9 6 6 6 7 7 7 7 8 6 6 6 5 2 3 3 5 7 7 5 6 6 6 6 5 5 5 3 2 3 4 5 5 6 4 6 6 5 4 3 2 3 2 1 3 3 4 4 4 2 4 1 1 4 7 4 4
16 16 17 19 18 17 13 14 14 11 11 13 12 13 12 12 13 15 14 12 12 13 12 12 11 10 10 9 9 8 8 8 8 8 8 8 8 8 7 7 5 4 2 4 4 5 4 4 5 5 5 5 6 6 6 5 3 3 4 5 5 7 6 7 6 4 4 5 3 4 3 2 3 2 2 2 2 2 3 2 1 2 4 7 3
16 15 16 16 14 12 12 13 13 14 13 13 12 13 13 13 13 15 13 14 13 13 13 13 11 10 8 8 9 9 10 9 11 11 12 11 9 9 7 6 6 5 3 3 5 6 5 5 3 4 5 5 6 5 5 5 4 3 4 5 4 5 6 7 5 5 5 6 5 5 5 4 4 5 3 4 6 3 4 3 2 2 4 4 3
17 17 16 15 16 16 14 14 13 14 15 16 16 15 14 14 15 16 15 14 14 13 13 13 12 10 9 9 8 9 10 11 11 11 10 9 8 8 8 8 6 6 6 6 5 8 7 7 6 6 6 5 5 4 4 4 4 4 5 5 5 6 6 6 6 4 6 7 6 3 5 5 5 3 5 5 4 5 6 3 0 1 5 5 2
17 17 17 17 16 16 17 17 16 14 15 16 15 15 14 14 16 17 17 14 13 14 13 13 12 10 8 8 9 9 10 11 10 10 9 8 9 9 10 10 9 10 9 10 8 8 8 8 8 7 6 6 6 5 5 4 5 5 6 6 5 5 6 7 6 5 6 6 6 6 4 5 4 4 5 5 5 5 4 4 3 2 2 5 2
17 17 18 18 18 18 16 17 16 15 16 15 14 15 14 14 15 16 15 14 14 14 12 12 10 8 8 9 10 9 9 9 8 7 9 9 8 9 9 9 9 9 10 9 8 9 8 8 7 7 6 6 5 5 5 5 5 6 6 6 5 6 7 7 6 7 7 6 5 6 5 4 5 3 5 5 5 5 6 4 5 7 4 3 2
16 17 17 18 18 17 15 15 16 15 17 15 16 15 15 16 16 16 16 15 14 13 12 11 9 8 9 10 10 10 8 7 6 6 8 10 10 10 10 10 9 9 7 7 9 9 9 9 8 8 7 7 7 7 7 6 7 7 6 6 6 5 7 7 6 7 7 6 6 4 5 3 3 4 4 4 4 4 5 5 5 4 9 6 2
16 16 16 17 15 16 16 17 16 15 15 16 18 17 18 17 15 15 14 13 14 13 11 8 8 9 9 10 10 9 9 9 8 9 10 9 10 10 9 10 9 7 7 7 8 8 8 9 9 8 8 7 7 7 8 7 7 7 7 6 7 6 7 7 6 7 6 5 4 4 5 5 3 3 3 3 3 3 5 5 4 4 4 8 4
18 17 17 18 17 17 15 15 17 19 19 18 18 17 16 16 16 16 14 15 14 12 10 9 9 9 9 10 10 10 10 8 8 9 9 9 8 8 7 7 9 8 7 7 7 8 8 9 8 8 8 8 8 8 8 8 7 6 7 6 6 7 7 5 6 7 5 4 4 4 4 4 2 3 3 2 3 4 5 5 5 3 4 5 3
16 16 15 15 15 16 16 16 15 16 19 19 17 15 13 12 12 13 16 16 12 8 7 7 8 8 8 9 9 9 8 7 8 9 10 10 11 10 10 11 8 7 6 7 8 8 8 9 8 8 8 8 8 9 9 8 8 7 6 7 6 7 7 6 5 6 4 5 4 4 3 3 2 3 3 3 3 5 6 6 4 5 5 5 5
17 17 15 15 15 16 17 17 17 16 14 13 15 13 14 13 13 13 11 7 6 8 8 9 8 8 8 8 8 8 7 8 8 10 9 10 11 10 9 8 10 8 8 9 9 9 9 9 7 8 8 8 8 9 9 8 8 7 7 7 6 7 7 6 4 4 4 4 4 4 3 3 3 3 3 4 4 3 4 5 5 5 4 3 4
17 17 16 16 16 16 16 17 17 15 14 14 14 15 14 13 13 13 12 10 10 8 8 8 8 8 10 10 8 7 8 8 9 10 10 10 9 8 9 8 7 9 9 9 10 9 7 7 9 9 9 8 8 8 7 8 8 7 7 7 7 7 8 5 5 3 3 4 4 4 4 3 4 4 3 4 5 4 4 5 4 5 5 2 3
17 17 17 17 16 15 14 13 11 12 12 14 13 12 12 13 13 12 10 9 9 8 9 8 8 8 10 9 8 7 8 8 9 9 9 9 8 7 6 6 8 9 10 10 10 7 4 4 4 6 6 3 1 4 6 8 8 8 7 6 7 8 7 6 5 5 4 5 5 5 4 4 5 6 4 3 5 6 5 5 3 6 5 2 1
17 17 16 16 15 15 15 16 15 15 14 15 13 14 14 14 12 10 11 10 9 8 7 8 8 8 9 8 8 8 8 9 9 8 8 8 6 5 6 8 8 8 8 8 8 8 8 8 7 8 8 6 5 4 4 3 6 8 8 6 7 7 7 7 6 5 5 5 5 5 5 5 4 6 4 4 4 4 4 5 4 3 4 3 1
17 15 15 15 15 15 14 14 14 13 13 14 14 14 13 12 11 10 11 10 9 8 9 9 9 9 9 8 9 8 9 9 9 8 8 6 6 6 6 7 7 7 8 6 3 5 7 5 8 9 9 7 7 8 8 6 6 7 7 7 7 6 6 6 6 6 5 4 5 5 3 5 5 6 4 5 3 3 3 3 3 2 4 3 2
15 16 15 14 15 15 15 15 15 14 13 13 13 13 12 12 10 10 9 10 9 9 10 9 10 10 10 10 10 10 10 9 9 7 7 7 6 6 6 7 7 7 5 4 5 7 9 6 9 10 10 9 9 8 8 7 6 6 6 7 7 6 6 6 5 5 5 5 5 5 5 6 6 6 4 4 3 3 2 4 3 1 1 0 1
18 16 15 17 17 16 15 15 14 14 15 15 13 13 12 11 10 8 10 10 10 10 10 10 10 11 10 10 10 10 11 10 8 8 8 8 7 7 6 5 6 5 5 5 7 8 11 11 11 11 11 9 8 7 8 8 7 7 7 7 6 6 6 7 6 6 6 5 6 6 5 6 6 6 4 2 2 3 3 4 4 3 1 1 1
19 17 16 15 14 16 17 16 15 15 14 14 14 13 11 9 8 8 9 10 11 11 11 11 11 11 10 10 10 10 10 9 8 8 8 7 8 7 7 6 6 6 5 6 7 6 6 5 4 5 9 10 8 8 7 5 6 7 8 8 7 8 8 7 6 6 5 5 5 5 5 5 6 5 5 4 3 3 4 4 3 2 1 2 3
12 12 16 17 17 16 15 15 15 14 13 12 11 10 10 10 10 9 10 10 10 11 11 11 11 10 10 10 9 9 9 8 8 8 8 7 7 7 7 6 5 7 6 6 7 7 5 6 7 7 4 5 8 8 7 6 3 5 7 8 9 9 9 7 6 5 4 5 5 4 4 4 5 4 5 4 4 4 3 4 1 2 4 5 4
12 14 16 16 16 14 13 13 13 12 12 11 9 8 7 7 7 9 10 11 11 11 11 11 10 10 10 10 8 8 8 9 9 9 8 8 7 7 7 7 6 6 6 5 5 8 8 7 7 7 7 5 6 8 6 5 6 6 7 9 10 10 10 9 7 5 4 4 4 4 4 4 4 6 5 3 3 4 5 5 1 4 5 6 5
13 13 13 14 16 15 14 14 12 13 12 11 9 9 10 11 11 10 10 10 11 11 11 11 11 9 9 9 9 8 8 9 9 9 9 8 7 7 7 6 6 6 6 6 6 6 8 9 9 8 7 6 5 6 9 9 6 7 8 8 9 9 10 9 8 7 4 4 4 4 5 11 10 9 7 8 8 8 6 5 5 5 6 6 6
12 14 12 11 11 11 12 13 13 12 12 11 11 10 10 10 9 10 10 10 10 11 11 11 10 9 9 10 10 9 9 10 9 9 8 8 8 7 7 7 7 7 8 6 6 6 6 8 9 9 9 7 6 7 12 11 11 12 10 10 10 9 9 9 8 8 7 6 4 4 4 7 8 7 6 9 10 10 10 9 8 7 5 7 8
7 2 7 12 12 11 11 11 10 11 11 11 10 10 10 9 9 10 10 9 9 10 10 10 10 9 9 10 9 9 10 9 9 9 9 8 7 7 7 7 7 7 6 7 7 6 6 6 7 8 10 9 7 10 15 14 14 14 13 10 9 9 8 8 8 8 7 7 6 4 3 4 4 4 4 5 7 9 10 11 12 11 11 8 5
8 8 7 2 6 10 11 10 10 11 11 11 10 9 9 9 10 9 8 9 9 9 9 9 10 9 8 9 9 9 9 8 8 8 8 7 7 7 7 8 8 7 6 7 6 6 6 5 6 8 7 7 6 11 14 14 15 15 16 13 9 9 9 8 8 8 8 7 6 6 4 3 4 9 6 4 5 5 7 9 10 10 10 10 9
6 6 8 8 8 3 8 11 11 10 8 6 7 9 9 9 9 8 9 8 8 8 9 9 10 9 8 8 9 9 8 7 7 7 8 7 7 7 7 6 7 7 7 6 6 7 6 6 7 7 6 5 5 8 13 13 14 15 16 13 9 9 9 9 9 9 8 8 8 7 6 5 3 3 3 4 4 4 4 4 5 4 5 7 9
5 5 7 9 2 7 4 7 7 8 8 8 7 8 8 8 9 9 8 9 8 8 8 10 9 8 9 8 8 8 8 7 7 8 7 7 7 7 7 6 7 7 8 8 7 7 7 7 6 6 7 6 5 10 13 14 14 16 16 12 9 8 7 7 8 8 9 9 8 7 7 7 5 4 4 4 5 4 4 4 4 4 4 4 4
3 2 6 10 13 13 6 4 4 6 5 6 7 6 8 7 7 9 8 8 8 9 8 8 10 10 10 9 9 8 8 7 7 8 8 7 7 7 7 6 6 5 5 5 5 5 7 7 6 6 6 6 4 10 12 14 15 15 15 8 8 8 8 7 7 7 7 7 7 7 7 7 6 5 6 8 6 4 4 4 4 2 3 3 3
6 2 3 9 10 10 8 4 7 6 7 5 5 6 8 8 7 8 10 9 10 11 10 10 10 10 10 10 10 9 8 7 7 7 7 7 7 8 6 6 6 6 6 6 6 6 6 7 7 7 7 6 5 7 11 13 14 14 10 7 8 7 7 8 7 7 6 6 6 7 7 7 6 5 7 10 8 7 4 4 3 2 1 2 3
9 10 10 9 11 10 9 9 7 7 5 6 6 8 9 8 8 7 9 10 10 9 10 11 10 11 11 10 10 10 9 8 8 8 7 7 7 7 7 6 7 6 7 6 5 5 5 6 8 7 7 7 5 7 11 12 15 14 10 8 7 7 7 7 6 5 6 5 7 12 9 8 7 5 7 9 10 7 5 4 4 3 2 2 3
11 10 9 9 9 12 11 11 10 9 7 8 9 8 9 9 5 4 8 12 11 10 10 9 10 10 10 10 10 10 10 9 8 7 7 8 7 8 6 6 6 5 5 5 5 5 5 5 5 7 8 8 7 7 10 12 15 13 9 6 7 7 8 7 7 6 4 5 5 7 10 8 7 6 6 5 8 9 6 7 6 5 4 4 5
11 10 8 6 5 8 9 7 7 6 4 8 11 11 8 9 8 9 8 5 6 11 11 10 10 11 10 10 9 10 10 10 9 7 8 8 7 7 7 7 6 6 5 5 5 5 7 6 5 6 7 7 8 7 8 10 10 12 11 8 7 8 8 7 7 8 7 4 4 5 5 10 12 10 10 10 10 11 9 7 6 5 4 5 3
8 7 7 8 8 10 10 9 8 9 9 7 9 10 7 5 8 9 8 8 8 8 11 11 10 10 10 10 10 10 11 9 9 9 8 8 8 8 7 7 7 6 6 5 5 5 6 6 5 6 7 7 7 9 7 9 8 9 12 12 7 8 8 9 8 8 8 8 6 5 4 8 12 11 10 9 8 9 8 7 8 7 5 3 3
4 7 6 7 9 9 9 9 7 8 9 10 12 12 10 9 9 7 1 6 6 8 8 10 10 9 9 9 10 9 10 10 9 9 9 8 6 7 8 8 6 7 7 7 5 6 6 6 5 5 5 6 5 8 9 7 8 9 9 12 9 8 10 10 9 8 7 7 7 7 6 7 10 11 11 10 9 9 9 6 5 7 6 6 4
8 11 10 10 10 9 7 6 6 8 9 11 12 12 12 12 12 11 4 2 1 1 4 6 6 8 9 10 9 11 9 8 9 10 10 10 9 9 8 7 7 7 8 7 6 6 6 5 4 3 3 5 6 6 6 6 6 9 10 10 12 10 10 9 11 10 9 7 5 6 5 8 10 11 10 10 9 9 7 4 7 7 6 5 3
11 8 7 8 9 8 7 7 5 3 2 3 9 10 9 11 11 8 9 6 6 7 4 3 5 6 7 8 9 9 8 8 9 9 9 10 8 8 8 7 8 7 7 7 6 6 6 6 6 5 6 7 5 3 6 7 7 8 8 9 11 13 13 7 8 9 7 8 8 7 7 10 10 10 9 9 7 6 4 6 5 5 4 4 1
8 7 5 6 9 8 7 7 5 5 4 5 3 8 10 11 8 6 9 12 9 2 2 1 4 4 6 8 9 8 8 8 8 8 7 7 7 7 8 7 9 8 8 8 6 6 7 6 7 7 6 6 5 5 4 6 9 8 9 8 8 12 13 13 7 6 8 8 10 12 12 11 10 9 8 7 6 5 4 4 3 2 2 2 2
9 9 7 8 9 10 10 9 7 6 6 5 5 4 7 5 6 6 8 7 7 8 6 2 1 3 5 7 8 7 6 5 5 5 7 8 9 8 8 7 6 7 7 8 7 6 6 7 7 6 7 7 6 5 4 3 5 8 8 12 11 12 14 15 11 8 8 10 13 12 11 10 8 6 4 3 3 1 2 5 5 4 4 3 2
8 6 6 9 10 11 12 11 10 7 6 5 5 4 4 5 5 4 4 4 1 3 7 5 4 4 5 7 8 7 6 6 5 4 4 3 3 5 6 7 8 7 6 6 7 7 6 7 7 7 6 4 4 3 3 3 3 4 4 7 9 9 11 12 8 7 8 6 7 7 5 6 6 6 5 4 2 1 2 4 4 3 3 2 2
8 8 10 11 12 12 12 11 10 8 7 8 7 6 4 3 4 4 4 4 4 3 5 5 4 4 5 7 8 10 10 6 6 5 5 4 3 3 5 7 8 9 8 7 7 7 8 9 8 7 7 6 5 4 4 5 4 4 2 3 7 9 9 9 9 8 8 5 5 5 6 4 4 2 2 1 1 1 3 2 2 2 3 1 4
11 10 12 11 11 12 12 12 10 8 9 10 9 8 7 6 3 3 6 6 4 5 6 5 4 5 6 6 7 6 6 7 7 9 7 5 3 2 1 2 1 3 10 12 11 9 8 7 9 10 10 7 6 7 6 4 5 7 6 4 4 5 6 5 8 11 9 5 4 5 4 3 2 3 1 1 0 1 2 2 3 4 3 2 3
8 9 11 12 12 12 12 11 9 9 10 10 10 9 8 7 6 5 5 7 7 7 7 5 5 5 5 5 5 5 5 6 6 7 7 8 9 10 6 1 2 1 5 7 12 10 10 10 9 7 7 12 10 7 9 11 11 10 10 12 11 10 10 10 11 11 7 5 3 3 3 3 2 2 1 0 0 1 2 4 4 4 2 2 3
8 10 11 11 10 11 11 11 9 9 9 9 9 9 8 8 7 7 7 7 7 7 6 5 5 5 5 6 6 6 5 5 5 6 6 7 5 9 14 13 7 2 10 11 10 13 14 13 14 9 4 11 15 14 14 13 14 13 14 16 16 16 16 15 14 10 5 4 3 3 1 2 1 0 1 1 1 2 2 1 3 3 2 2 3
Wind_Direction
184 180 177 178 173 167 155 152 156 159 161 165 168 167 161 159 157 163 164 158 156 155 156 155 159 164 165 171 175 174 170 164 166 174 178 183 184 184 187 188 186 193 200 195 198 163 126 129 129 144 158 164 164 182 180 173 178 164 157 159 140 119 332 27 53 82 57 349 6 356 342 339 348 49 27 5 1 344 10 86 89 83 73 82 86
156 159 172 156 162 159 151 153 156 159 171 170 172 164 156 156 160 163 163 165 158 155 153 154 162 170 169 176 169 172 169 172 175 177 180 182 182 183 184 185 188 192 202 185 151 128 129 140 167 176 175 164 165 161 170 215 199 159 142 129 76 146 216 237 213 103 8 114 6 327 346 355 22 37 27 5 6 326 57 83 94 116 118 115 90
170 176 171 170 167 165 162 165 170 169 170 171 164 152 158 164 164 163 165 163 156 152 150 152 158 162 164 170 167 173 189 180 164 170 173 177 185 182 182 187 187 194 181 144 150 151 154 166 189 185 171 165 150 146 163 244 228 164 156 149 127 57 89 303 77 106 152 124 92 85 331 78 342 1 338 1 10 12 78 103 164 106 103 103 106
175 176 176 170 168 169 167 170 172 166 165 161 159 160 163 167 165 164 164 160 153 160 155 152 157 163 165 160 171 170 179 177 159 149 167 171 182 185 188 184 180 173 147 153 156 165 167 175 176 174 178 178 149 152 196 229 243 162 145 132 124 108 56 242 75 149 130 121 318 165 198 115 84 312 315 292 335 37 54 47 33 60 76 92 76
177 176 174 168 171 175 175 176 168 168 167 167 165 166 169 166 162 162 164 164 157 159 154 147 141 145 151 153 159 156 146 159 162 142 166 171 173 182 192 175 158 152 141 157 173 173 175 166 167 177 179 176 154 159 199 212 224 182 156 133 146 144 160 176 335 72 171 179 138 88 33 34 208 229 44 295 354 34 22 51 41 34 119 126 82
172 174 176 178 175 172 175 175 174 169 168 171 168 164 157 161 161 162 161 168 164 163 156 152 153 155 157 162 175 179 179 181 190 180 161 163 173 164 147 155 156 154 157 165 185 174 171 171 168 174 179 178 173 165 185 203 221 152 172 154 143 146 142 148 140 11 96 327 115 153 164 174 185 240 93 211 321 35 359 54 43 18 357 39 60
178 173 175 174 175 175 180 180 178 168 169 164 164 157 155 158 162 162 162 165 168 163 161 155 160 163 170 177 178 181 177 194 170 142 135 130 141 154 165 170 171 160 164 165 172 179 167 168 177 181 172 178 186 153 171 193 200 176 141 136 153 136 117 136 165 186 38 35 39 55 63 81 142 121 202 87 41 319 9 6 16 19 50 44 46
176 179 178 178 175 177 182 185 179 169 162 163 159 155 159 161 161 164 164 165 170 164 169 165 165 171 172 175 177 176 180 175 151 129 125 137 147 164 163 156 160 172 164 169 172 172 172 173 174 167 168 185 188 169 164 189 153 129 135 137 134 133 135 136 150 177 143 217 23 60 63 60 65 82 121 156 157 128 333 333 344 29 42 38 75
174 176 180 180 180 184 184 183 174 156 164 166 162 158 156 157 158 162 167 167 171 169 171 175 170 175 176 173 176 178 163 149 134 128 135 147 151 132 118 133 193 194 155 159 165 166 174 175 169 167 170 181 187 150 161 179 173 142 130 123 120 117 118 129 121 149 126 156 99 36 59 71 65 54 63 73 124 114 329 52 325 339 49 37 70
179 178 178 181 183 186 187 176 162 167 164 156 149 149 155 157 161 166 171 174 174 175 174 179 177 174 176 179 174 162 147 140 143 143 149 159 150 143 146 168 193 112 136 187 170 176 176 169 170 178 177 180 179 164 165 161 187 161 150 133 131 121 111 110 119 136 128 101 104 144 96 77 45 27 26 67 56 86 142 134 73 56 55 23 38
178 182 180 180 183 184 174 168 167 157 158 155 154 156 158 163 166 171 175 175 176 178 180 183 182 180 183 177 171 157 153 149 152 156 160 169 156 160 167 180 185 196 211 170 181 179 176 172 179 185 177 185 178 166 169 162 173 156 149 130 133 128 120 108 98 105 111 93 82 108 140 149 166 143 165 115 130 116 75 54 356 66 116 101 23
176 176 181 181 178 175 167 165 162 162 157 158 157 158 162 168 171 174 179 180 179 181 185 184 185 186 178 166 165 159 159 165 170 174 179 173 161 161 168 177 195 193 209 218 180 174 173 176 188 178 179 192 191 174 140 147 142 144 133 123 118 115 116 108 114 107 95 90 81 88 98 102 90 121 156 137 122 157 129 150 114 74 65 78 114
173 177 177 178 177 172 170 167 161 160 165 164 163 164 167 171 175 177 185 186 182 180 188 188 187 186 173 162 157 160 167 172 179 182 179 163 161 158 166 187 189 193 204 206 205 180 173 173 187 187 188 193 190 150 141 144 142 144 130 123 130 130 126 119 113 115 111 107 106 81 101 90 98 108 116 112 90 111 123 118 310 98 131 149 172
175 176 177 178 179 175 169 165 167 167 166 165 166 167 171 176 180 183 186 186 185 185 187 190 189 178 162 157 159 163 174 179 185 180 164 159 164 169 175 186 190 198 198 206 193 187 178 181 185 193 193 182 175 154 152 159 149 147 134 135 138 134 110 106 111 102 92 105 111 104 94 109 118 126 125 121 141 113 96 128 134 47 77 137 147
174 176 178 179 178 173 170 168 168 169 166 166 168 172 172 179 184 187 184 189 189 189 186 189 182 163 155 159 163 172 174 181 183 165 150 157 168 170 184 192 198 203 201 201 187 192 184 178 180 179 187 183 163 160 162 162 151 141 135 135 132 119 108 111 104 104 105 104 100 114 121 113 128 140 122 122 127 126 138 157 128 123 74 43 77
178 177 178 179 175 172 168 168 172 169 166 166 170 172 178 183 187 188 188 189 191 188 190 183 168 155 155 162 170 173 174 172 161 149 158 164 168 176 184 194 204 205 195 181 194 189 186 181 178 179 181 180 175 168 165 156 154 140 135 131 120 111 111 104 105 101 111 118 119 127 111 132 151 139 120 129 107 133 127 118 107 119 135 120 67
178 178 177 177 175 172 170 171 171 167 167 171 175 179 181 182 184 187 189 191 193 193 182 170 160 156 163 164 169 176 172 173 168 165 161 167 171 181 183 195 202 204 199 189 183 187 190 185 179 177 177 174 170 167 158 152 149 139 136 129 116 115 110 114 109 107 122 127 127 138 135 137 151 129 89 90 114 103 112 134 140 146 152 127 144
178 178 178 176 174 171 169 174 173 171 173 175 179 180 183 183 184 184 188 194 196 185 174 169 161 158 162 169 173 175 178 170 160 159 159 163 178 181 184 199 203 203 196 188 180 182 187 185 177 176 171 166 163 156 151 147 138 132 134 119 121 118 110 104 112 117 129 131 136 133 134 133 150 108 132 92 72 84 97 114 110 116 130 141 159
174 176 177 177 172 170 168 172 180 177 174 175 176 177 180 183 184 188 195 198 189 172 159 159 159 160 166 171 173 175 171 159 157 157 161 171 176 185 183 196 200 192 191 185 183 185 186 182 176 171 164 160 155 150 145 140 137 130 126 116 114 116 118 122 128 124 141 134 145 145 139 129 129 129 101 88 96 97 105 106 103 107 95 123 136
175 176 177 175 174 172 170 172 175 176 175 174 174 176 180 182 183 195 199 180 161 167 165 163 162 156 163 166 174 167 159 153 156 158 168 178 182 183 183 186 194 187 194 189 189 188 185 175 166 163 161 156 155 148 143 139 134 132 130 124 122 120 124 131 128 129 141 142 128 118 127 151 146 117 91 83 97 93 118 109 113 100 96 111 122
176 174 173 174 175 174 175 175 176 174 172 169 173 179 181 180 189 192 187 180 175 170 164 162 156 159 161 170 166 155 153 151 154 167 171 180 184 181 182 187 178 193 192 192 192 189 180 169 165 165 159 153 151 146 145 139 132 130 128 127 126 126 130 132 133 147 133 130 122 115 108 114 124 108 93 81 95 112 103 102 110 102 101 136 111
174 173 173 173 172 172 171 172 168 166 169 171 175 175 178 186 191 187 180 178 170 166 168 159 159 160 165 168 158 150 149 152 158 172 174 178 180 178 171 167 188 197 196 195 187 175 140 114 78 59 50 36 62 136 146 139 134 132 131 130 132 132 133 140 143 143 140 138 133 122 116 109 102 106 104 104 118 114 116 117 129 121 129 161 185
175 173 171 169 168 168 169 169 170 172 174 173 173 178 184 190 188 184 179 177 168 163 155 151 154 160 165 160 149 152 152 159 164 170 174 174 168 160 162 177 190 198 204 199 182 152 136 148 139 133 149 158 146 134 102 120 140 139 138 135 137 136 137 140 141 146 148 144 128 124 127 118 106 95 90 90 105 117 128 131 144 133 144 180 211
173 170 167 166 165 165 165 170 170 171 172 175 178 180 184 187 188 178 176 165 157 155 150 151 155 161 162 154 154 154 158 165 170 169 167 162 153 158 168 177 191 196 197 191 132 135 137 148 138 133 147 163 153 152 168 174 151 143 135 135 139 138 136 138 141 142 142 130 123 100 92 104 98 87 64 64 49 103 116 118 120 157 143 186 196
169 167 165 161 160 165 172 172 171 171 173 176 178 181 182 186 180 175 167 157 153 150 151 153 156 161 165 159 157 159 165 173 171 163 160 151 151 156 167 178 184 194 181 138 115 123 135 147 150 155 157 157 171 173 157 151 145 133 130 135 144 142 139 134 123 124 121 116 107 113 120 108 105 97 75 73 65 78 91 96 89 58 99 308 297
172 167 160 165 169 171 171 172 171 172 174 178 179 181 183 181 177 162 152 152 153 152 153 154 159 164 169 166 162 165 171 176 166 162 162 157 153 159 164 172 180 173 159 145 135 149 159 168 167 166 156 159 162 164 156 150 145 134 136 141 136 127 117 110 112 110 115 116 122 123 121 118 113 116 118 107 100 104 93 78 78 67 32 337 240
167 166 167 162 165 174 174 171 172 174 177 178 176 176 176 169 155 151 152 152 154 154 155 157 164 167 169 171 167 171 171 167 162 163 163 158 155 158 166 171 167 163 144 146 160 146 81 79 96 131 154 153 155 137 131 132 137 139 139 133 121 110 109 107 107 111 107 109 113 117 115 115 117 123 131 139 131 115 107 97 86 101 123 86 83
155 151 156 165 172 171 171 173 171 174 175 174 174 169 165 160 158 155 155 153 157 154 157 160 165 170 172 172 170 170 161 155 156 160 166 166 155 156 167 159 154 155 142 141 161 127 123 137 137 135 132 155 145 130 129 130 143 143 136 124 119 117 112 104 98 94 98 101 104 102 107 111 121 133 139 156 146 139 127 95 67 99 85 89 92
150 159 162 161 165 170 170 169 169 164 163 159 148 136 128 134 147 154 153 155 154 153 158 161 164 171 173 168 165 163 149 148 156 160 163 165 160 154 158 157 153 148 156 146 125 140 141 137 130 131 142 162 149 127 130 137 150 152 133 124 124 123 120 115 106 97 94 99 96 100 105 118 119 129 143 147 142 156 141 115 87 108 98 99 93
152 157 161 165 166 165 166 163 161 161 154 149 145 145 152 156 159 157 151 152 150 154 157 161 163 167 168 160 159 153 149 150 158 163 163 162 156 151 155 150 150 156 160 155 138 131 147 145 148 152 157 158 154 139 151 171 175 154 135 128 126 127 126 126 122 114 100 99 104 103 103 101 101 110 112 111 105 99 98 119 148 128 119 103 106
153 154 156 158 160 161 158 159 157 153 153 153 155 157 157 154 151 151 152 156 153 156 158 161 159 161 166 157 152 152 150 159 165 159 158 157 154 148 145 144 148 154 162 158 137 131 150 159 157 158 161 169 157 162 154 173 163 151 137 136 134 133 130 130 131 130 128 121 101 92 95 98 98 101 102 102 101 99 96 97 98 102 119 133 127
29 20 151 153 154 154 153 150 146 147 152 155 158 159 152 149 148 152 154 156 155 156 157 157 154 161 165 154 150 148 153 160 161 159 157 160 154 149 146 151 152 158 156 149 151 140 145 160 158 161 170 171 164 156 160 169 160 151 142 140 138 137 137 136 136 133 133 129 128 120 106 108 119 131 122 102 97 100 104 102 97 96 94 86 104
92 80 15 346 157 149 143 139 144 156 164 168 153 145 150 149 151 152 147 154 153 154 152 150 152 163 160 152 148 148 155 158 159 153 153 154 156 152 148 153 163 161 150 162 163 148 156 157 156 164 168 168 168 162 164 166 164 153 144 140 141 140 140 142 141 140 139 140 143 137 136 142 148 128 114 110 110 104 104 106 107 102 95 96 91
52 69 86 39 343 126 144 154 159 159 146 131 140 145 148 147 145 144 147 150 147 151 148 147 152 157 154 151 150 151 156 156 148 147 150 155 158 160 153 153 150 152 160 163 166 165 161 162 167 164 161 166 160 171 169 169 168 154 145 139 143 145 145 148 150 148 147 152 155 151 152 157 161 135 139 124 112 100 91 84 81 83 95 96 97
99 98 99 104 48 312 141 142 137 130 134 135 140 143 140 141 143 144 145 144 143 140 146 148 150 149 145 147 151 153 155 155 151 149 153 157 158 150 148 148 153 161 167 171 168 168 168 165 162 164 166 166 168 165 174 173 168 156 149 140 145 145 146 150 152 153 157 160 161 160 158 157 157 162 170 147 129 124 100 88 87 91 95 114 122
6 126 170 157 166 182 168 101 78 101 110 125 139 138 136 142 144 141 140 137 140 142 144 146 145 148 151 152 155 156 155 155 151 151 155 154 151 150 150 145 144 153 159 156 166 164 162 164 160 156 151 169 167 176 174 174 165 160 150 139 144 148 151 150 153 159 162 156 159 159 158 159 164 169 180 169 152 134 120 104 104 94 104 109 123
13 33 64 43 29 44 54 67 82 81 94 101 111 117 123 130 140 143 140 145 150 151 151 150 149 153 155 159 159 156 154 154 152 152 154 149 145 143 144 142 142 158 166 171 175 168 161 160 160 165 168 167 167 188 179 171 164 160 151 142 142 147 152 153 159 164 155 153 162 164 158 158 157 176 179 181 171 152 132 137 134 142 116 114 138
57 65 77 92 108 103 93 94 89 86 96 112 116 123 119 122 134 145 144 149 151 153 154 153 156 158 161 164 158 154 155 157 156 157 151 145 141 138 148 155 155 161 173 174 158 145 146 161 163 169 174 165 175 181 182 178 162 167 156 154 145 137 147 149 145 141 144 158 168 162 155 153 158 170 174 185 182 168 163 157 152 153 172 183 228
67 70 84 111 119 123 129 124 120 124 126 113 102 95 110 115 103 127 150 152 157 152 152 155 157 161 161 160 157 155 154 155 155 152 147 144 145 144 147 151 155 156 163 153 148 148 147 155 168 164 167 166 167 178 186 187 167 161 147 144 137 125 128 138 135 126 122 146 147 149 151 150 148 155 161 206 188 180 167 167 163 159 182 197 228
81 88 81 47 48 82 78 74 78 68 54 97 102 96 97 109 116 122 112 95 139 156 161 158 160 161 161 158 157 155 153 154 150 144 148 146 139 135 149 155 153 154 148 151 149 150 160 166 164 164 167 170 163 168 185 194 181 150 143 138 139 133 136 136 134 135 128 103 123 127 142 136 128 142 160 160 155 153 152 160 150 165 172 207 233
99 110 147 142 133 117 112 110 109 104 98 78 82 87 75 71 108 120 130 160 171 169 158 160 159 158 159 158 157 155 151 151 148 146 141 142 148 150 151 153 152 152 153 153 156 152 157 165 162 167 170 172 170 160 168 172 183 150 144 139 146 143 140 136 137 136 138 143 152 157 150 148 144 139 123 118 115 116 131 153 166 176 190 182 132
77 82 68 82 78 75 90 94 87 91 93 93 91 88 91 76 55 32 63 149 171 182 160 152 153 155 156 155 154 153 150 146 141 136 138 141 142 143 153 154 149 152 160 164 152 155 157 158 163 177 178 165 152 148 143 157 159 138 137 136 138 142 146 137 134 135 144 152 159 161 160 170 147 131 123 120 121 120 120 113 140 143 143 137 171
62 46 39 50 53 60 64 75 104 116 127 130 129 135 142 139 134 145 154 245 203 38 119 135 149 155 159 158 152 147 145 144 147 150 146 151 156 153 154 146 149 153 157 160 157 154 152 147 137 101 66 56 52 60 77 111 106 98 100 107 121 128 141 142 140 152 165 160 148 148 153 164 148 131 122 120 119 117 102 123 145 152 171 183 181
55 53 54 63 69 65 66 69 69 61 72 98 131 131 130 124 128 128 103 74 32 1 27 114 169 171 156 149 147 147 144 147 152 155 157 154 158 153 149 153 153 154 156 159 160 153 148 147 131 95 74 65 69 84 75 95 103 91 88 110 123 133 139 149 148 151 155 151 151 158 162 168 145 131 123 117 118 110 125 150 165 158 175 184 116
70 65 69 79 90 94 92 86 74 64 39 40 46 122 127 125 128 127 144 138 131 122 38 161 178 178 157 147 142 145 148 150 152 147 143 148 152 152 154 163 157 158 160 162 162 160 156 148 134 137 113 116 128 133 127 107 110 103 99 107 137 143 139 122 118 157 156 162 157 153 155 156 141 127 115 109 99 99 112 131 115 96 67 55 70
81 75 72 91 94 89 86 82 73 66 61 50 48 62 93 102 111 125 127 138 148 137 127 165 162 156 139 129 122 113 108 114 131 149 158 164 163 166 162 160 159 160 161 151 151 155 145 128 121 115 137 154 154 132 126 131 118 106 92 94 101 131 151 154 146 136 143 137 144 146 142 135 124 120 108 99 102 69 60 77 64 52 38 31 76
52 59 78 80 81 79 75 72 70 64 62 59 60 61 90 114 118 105 91 99 103 126 117 126 138 129 116 109 108 104 96 87 83 82 82 109 138 153 150 156 158 152 140 142 148 145 134 131 136 147 142 119 107 93 90 66 38 66 101 113 109 108 114 102 91 98 91 110 116 122 129 116 99 96 107 133 131 57 55 43 42 54 50 73 97
58 61 75 73 72 72 68 63 56 49 53 56 54 53 60 95 118 118 103 105 108 115 112 119 125 121 114 113 110 116 112 100 77 77 79 74 97 125 158 163 168 159 147 147 151 156 158 154 150 146 128 115 115 111 123 140 138 134 148 140 131 137 143 145 130 129 124 118 113 97 93 73 88 65 42 18 18 54 85 57 32 79 52 37 92
61 58 65 71 73 71 70 66 56 51 54 53 51 50 49 50 51 103 128 114 100 94 91 86 87 97 94 96 114 116 115 113 102 78 66 59 52 44 97 186 284 189 167 162 172 170 163 155 148 148 139 130 136 160 179 157 148 157 152 117 83 95 101 100 114 119 110 99 107 107 95 100 105 126 80 65 11 10 357 20 21 30 33 32 92
69 68 69 69 67 71 71 67 56 53 54 52 49 47 45 46 58 60 85 100 98 83 76 65 60 74 76 80 76 78 85 98 108 106 97 73 59 67 50 39 224 252 154 170 162 167 163 145 134 140 154 158 173 163 139 135 137 126 114 109 109 104 107 110 105 94 98 103 96 117 136 141 139 125 133 168 7 2 354 357 351 19 47 135 101
79 72 65 67 67 71 71 67 63 60 58 55 53 48 47 45 48 59 75 80 87 89 80 71 64 52 66 89 88 84 84 90 94 102 103 101 82 34 34 33 19 160 131 118 111 115 130 142 141 135 71 99 116 127 136 135 125 119 117 116 114 113 111 112 108 99 78 111 125 142 69 40 358 39 168 213 284 302 317 5 323 341 39 115 138